Location: Azat
(46.0765°N, 1.7600°E)
Time: 13:20:17
(UTC+00:00)

ERS-1 Rocket - Visible Passes

Search period start: 06 August 2020 00:00
Search period end: 16 August 2020 00:00
Orbit: 752 x 758 km, 98.5° (Epoch: 05 August)

Date Brightness Start Highest point End Pass type
(mag) Time Alt. Az. Time Alt. Az. Time Alt. Az.
06 Aug 2.9 21:16:08 31° SSE 21:18:35 74° ENE 21:23:36 10° N visible
06 Aug 5.2 22:56:07 13° WSW 22:57:56 15° W 23:00:44 10° NW visible
07 Aug 3.9 20:36:09 18° ESE 20:39:10 34° ENE 20:43:40 10° N visible
07 Aug 4.2 22:16:08 26° SW 22:17:56 33° W 22:22:29 10° NNW visible
08 Aug 4.8 19:56:51 10° E 19:59:59 17° ENE 20:03:07 10° NNE visible
08 Aug 3.0 21:36:08 36° S 21:38:11 75° WSW 21:43:14 10° NNW visible
09 Aug 3.3 20:56:09 26° SE 20:58:39 49° ENE 21:03:30 10° N visible
09 Aug 4.7 22:36:09 19° WSW 22:37:43 22° W 22:41:37 10° NW visible
10 Aug 4.3 20:16:09 13° ESE 20:19:21 24° ENE 20:23:19 10° N visible
10 Aug 3.6 21:56:10 35° SSW 21:57:50 50° W 22:02:44 10° NNW visible
11 Aug 5.0 19:38:36 10° ENE 19:40:17 12° NE 19:41:59 10° NE visible
11 Aug 2.9 21:16:10 36° SSE 21:18:12 74° ENE 21:23:14 10° N visible
11 Aug 5.2 22:56:10 14° WSW 22:57:32 15° W 23:00:23 10° NW visible
12 Aug 3.9 20:36:12 21° ESE 20:38:47 34° ENE 20:43:17 10° N visible
12 Aug 4.2 22:16:11 29° SW 22:17:33 33° W 22:22:06 10° NNW visible
13 Aug 4.8 19:56:30 10° E 19:59:36 17° ENE 20:02:43 10° NNE visible
13 Aug 3.0 21:36:12 44° S 21:37:48 76° WSW 21:42:51 10° NNW visible
14 Aug 3.3 20:56:13 31° SE 20:58:16 49° ENE 21:03:07 10° N visible
14 Aug 4.7 22:36:13 21° WSW 22:37:19 23° W 22:41:15 10° NW visible
15 Aug 4.3 20:16:14 15° ESE 20:18:59 24° ENE 20:22:55 10° N visible
15 Aug 3.5 21:56:14 41° SW 21:57:28 50° W 22:02:21 10° NNW visible
